When you browse on this site, cookies collect data to enhance your experience and personalize the content and advertising you see.
Visit our Privacy Policy to learn more. By continuing to use the site, you agree to this use of cookies and data.
EN

Hourly Weather Gogolewo

Today, 24 September, Thursday

Time Temperature Precipitation Wind Pressure Humidity
00:00 +18°C° 0 mm 1 mps 748 mmHg 85%
01:00 +17°C° 0 mm 2 mps 748 mmHg 79%
02:00 +17°C° 0 mm 2 mps 748 mmHg 80%
03:00 +16°C° 0 mm 2 mps 748 mmHg 80%
04:00 +16°C° 0 mm 2 mps 748 mmHg 80%
05:00 +16°C° 0 mm 3 mps 747 mmHg 78%
06:00 +16°C° 0 mm 3 mps 747 mmHg 76%
07:00 +16°C° 0 mm 3 mps 747 mmHg 74%
08:00 +17°C° 0 mm 4 mps 747 mmHg 70%
09:00 +19°C° 0 mm 5 mps 748 mmHg 66%
10:00 +21°C° 0 mm 5 mps 748 mmHg 61%
11:00 +22°C° 0 mm 5 mps 748 mmHg 61%
12:00 +22°C° 0 mm 5 mps 748 mmHg 60%
13:00 +23°C° 0 mm 5 mps 749 mmHg 59%
14:00 +22°C° 0.1 mm 4 mps 749 mmHg 58%
15:00 +21°C° 0.1 mm 4 mps 749 mmHg 57%
16:00 +20°C° 0.1 mm 3 mps 749 mmHg 56%
17:00 +19°C° 0 mm 2 mps 749 mmHg 60%
18:00 +17°C° 0 mm 2 mps 749 mmHg 64%
19:00 +15°C° 0 mm 1 mps 749 mmHg 68%
20:00 +15°C° 0 mm 1 mps 749 mmHg 68%
21:00 +15°C° 0 mm 2 mps 749 mmHg 69%
22:00 +15°C° 0 mm 2 mps 749 mmHg 69%
23:00 +15°C° 0 mm 2 mps 748 mmHg 72%

Tomorrow, 25 September, Friday

Time Temperature Precipitation Wind Pressure Humidity
00:00 +14°C° 0 mm 3 mps 748 mmHg 76%
01:00 +14°C° 0 mm 3 mps 748 mmHg 79%
02:00 +14°C° 0.1 mm 3 mps 747 mmHg 83%
03:00 +14°C° 0.1 mm 3 mps 746 mmHg 88%
04:00 +14°C° 0.1 mm 4 mps 746 mmHg 92%
05:00 +14°C° 0.1 mm 4 mps 745 mmHg 90%
06:00 +15°C° 0.1 mm 4 mps 744 mmHg 89%
07:00 +15°C° 0.1 mm 4 mps 743 mmHg 87%
08:00 +16°C° 0.4 mm 5 mps 743 mmHg 84%
09:00 +17°C° 0.4 mm 5 mps 742 mmHg 80%
10:00 +19°C° 0.4 mm 5 mps 741 mmHg 77%
11:00 +17°C° 1.8 mm 5 mps 741 mmHg 82%
12:00 +16°C° 1.8 mm 5 mps 741 mmHg 87%
13:00 +15°C° 1.8 mm 5 mps 741 mmHg 92%
14:00 +15°C° 0.2 mm 5 mps 741 mmHg 91%
15:00 +14°C° 0.2 mm 5 mps 741 mmHg 90%
16:00 +14°C° 0.2 mm 5 mps 741 mmHg 89%
17:00 +13°C° 0 mm 5 mps 741 mmHg 89%
18:00 +13°C° 0 mm 4 mps 742 mmHg 89%
19:00 +12°C° 0 mm 4 mps 742 mmHg 89%
20:00 +11°C° 0 mm 4 mps 743 mmHg 90%
21:00 +11°C° 0 mm 3 mps 744 mmHg 92%
22:00 +10°C° 0 mm 3 mps 744 mmHg 93%
23:00 +10°C° 0 mm 2 mps 744 mmHg 92%

Day after tomorrow, 26 September, Saturday

Time Temperature Precipitation Wind Pressure Humidity
00:00 +9°C° 0 mm 2 mps 745 mmHg 91%
01:00 +9°C° 0 mm 2 mps 745 mmHg 90%
02:00 +9°C° 0 mm 2 mps 745 mmHg 89%
03:00 +9°C° 0 mm 2 mps 745 mmHg 88%
04:00 +9°C° 0 mm 2 mps 745 mmHg 88%
05:00 +9°C° 0 mm 2 mps 745 mmHg 87%
06:00 +9°C° 0 mm 2 mps 745 mmHg 86%
07:00 +9°C° 0 mm 2 mps 744 mmHg 86%
08:00 +10°C° 0.5 mm 2 mps 744 mmHg 86%
09:00 +11°C° 0.5 mm 3 mps 744 mmHg 87%
10:00 +11°C° 0.5 mm 4 mps 744 mmHg 88%
11:00 +12°C° 2.3 mm 4 mps 744 mmHg 89%
12:00 +12°C° 2.3 mm 5 mps 744 mmHg 91%
13:00 +11°C° 2.3 mm 6 mps 743 mmHg 93%
14:00 +13°C° 3.3 mm 5 mps 743 mmHg 94%
15:00 +13°C° 3.3 mm 5 mps 743 mmHg 94%
16:00 +14°C° 3.3 mm 5 mps 742 mmHg 95%
17:00 +15°C° 0.7 mm 5 mps 742 mmHg 95%
18:00 +15°C° 0.7 mm 5 mps 742 mmHg 95%
19:00 +15°C° 0.7 mm 4 mps 742 mmHg 95%
20:00 +14°C° 0 mm 4 mps 743 mmHg 95%
21:00 +12°C° 0 mm 3 mps 743 mmHg 96%
22:00 +11°C° 0 mm 3 mps 743 mmHg 97%
23:00 +11°C° 0 mm 3 mps 744 mmHg 96%

27 September, Sunday

Time Temperature Precipitation Wind Pressure Humidity
00:00 +10°C° 0 mm 2 mps 744 mmHg 95%
01:00 +10°C° 0 mm 2 mps 744 mmHg 94%
02:00 +10°C° 0.7 mm 2 mps 744 mmHg 95%
03:00 +10°C° 0.7 mm 3 mps 744 mmHg 95%
04:00 +9°C° 0.7 mm 3 mps 744 mmHg 96%
05:00 +10°C° 0.6 mm 3 mps 744 mmHg 96%
06:00 +10°C° 0.6 mm 3 mps 744 mmHg 96%
07:00 +10°C° 0.6 mm 3 mps 744 mmHg 97%
08:00 +12°C° 0.2 mm 3 mps 744 mmHg 93%
09:00 +14°C° 0.2 mm 3 mps 744 mmHg 89%
10:00 +17°C° 0.2 mm 3 mps 744 mmHg 85%
11:00 +18°C° 0 mm 4 mps 744 mmHg 79%
12:00 +19°C° 0 mm 4 mps 744 mmHg 73%
13:00 +21°C° 0 mm 4 mps 744 mmHg 67%
14:00 +20°C° 0 mm 4 mps 744 mmHg 68%
15:00 +20°C° 0 mm 4 mps 744 mmHg 68%
16:00 +19°C° 0 mm 4 mps 744 mmHg 69%
17:00 +19°C° 0 mm 4 mps 744 mmHg 70%
18:00 +18°C° 0 mm 3 mps 745 mmHg 71%
19:00 +18°C° 0 mm 3 mps 745 mmHg 72%
20:00 +17°C° 0 mm 3 mps 745 mmHg 72%
21:00 +17°C° 0 mm 3 mps 745 mmHg 71%
22:00 +17°C° 0 mm 3 mps 745 mmHg 71%
23:00 +17°C° 0 mm 4 mps 745 mmHg 73%

28 September, Monday

Time Temperature Precipitation Wind Pressure Humidity
00:00 +15°C° 0 mm 4 mps 745 mmHg 75%
01:00 +15°C° 0 mm 4 mps 745 mmHg 77%
02:00 +15°C° 0 mm 4 mps 745 mmHg 80%
03:00 +15°C° 0 mm 4 mps 745 mmHg 82%
04:00 +14°C° 0 mm 3 mps 745 mmHg 85%
05:00 +14°C° 0 mm 4 mps 746 mmHg 86%
06:00 +14°C° 0 mm 4 mps 746 mmHg 87%
07:00 +14°C° 0 mm 4 mps 746 mmHg 88%
08:00 +14°C° 0 mm 4 mps 746 mmHg 81%
09:00 +15°C° 0 mm 4 mps 747 mmHg 75%
10:00 +15°C° 0 mm 5 mps 747 mmHg 69%
11:00 +17°C° 0 mm 4 mps 747 mmHg 66%
12:00 +17°C° 0 mm 4 mps 747 mmHg 63%
13:00 +17°C° 0 mm 4 mps 747 mmHg 60%
14:00 +17°C° 0.1 mm 4 mps 747 mmHg 62%
15:00 +16°C° 0.1 mm 3 mps 747 mmHg 65%
16:00 +14°C° 0.1 mm 3 mps 748 mmHg 67%
17:00 +13°C° 0 mm 3 mps 748 mmHg 71%
18:00 +12°C° 0 mm 3 mps 748 mmHg 74%
19:00 +11°C° 0 mm 3 mps 748 mmHg 77%
20:00 +10°C° 0 mm 3 mps 749 mmHg 80%
21:00 +10°C° 0 mm 3 mps 749 mmHg 84%
22:00 +9°C° 0 mm 2 mps 749 mmHg 87%
23:00 +9°C° 0 mm 3 mps 749 mmHg 87%

29 September, Tuesday

Time Temperature Precipitation Wind Pressure Humidity
00:00 +9°C° 0 mm 3 mps 749 mmHg 87%
01:00 +10°C° 0 mm 3 mps 749 mmHg 87%
02:00 +10°C° 0.1 mm 3 mps 749 mmHg 87%
03:00 +10°C° 0.1 mm 3 mps 749 mmHg 88%
04:00 +10°C° 0.1 mm 3 mps 749 mmHg 88%
05:00 +10°C° 0 mm 3 mps 750 mmHg 88%
06:00 +10°C° 0 mm 3 mps 750 mmHg 88%
07:00 +10°C° 0 mm 3 mps 750 mmHg 88%
08:00 +12°C° 0 mm 2 mps 750 mmHg 83%
09:00 +13°C° 0 mm 2 mps 751 mmHg 77%
10:00 +14°C° 0 mm 2 mps 751 mmHg 72%
11:00 +14°C° 0 mm 1 mps 751 mmHg 71%
12:00 +14°C° 0 mm 1 mps 751 mmHg 70%
13:00 +15°C° 0 mm 1 mps 751 mmHg 69%
14:00 +15°C° 0 mm 1 mps 752 mmHg 70%
15:00 +15°C° 0 mm 1 mps 752 mmHg 71%
16:00 +14°C° 0 mm 1 mps 752 mmHg 71%
17:00 +14°C° 0 mm 1 mps 752 mmHg 74%
18:00 +13°C° 0 mm 1 mps 752 mmHg 77%
19:00 +12°C° 0 mm 1 mps 753 mmHg 80%
20:00 +12°C° 0 mm 1 mps 753 mmHg 81%
21:00 +12°C° 0 mm 1 mps 753 mmHg 82%
22:00 +11°C° 0 mm 1 mps 753 mmHg 84%
23:00 +11°C° 0 mm 1 mps 753 mmHg 86%
Show more